Location: ?????
(44.4284°N, 135.2222°E)
Time: 09:07:03
(UTC+00:00)

DELTA 2 R/B (1) - Pass Details

Date: 13 January 2026
Orbit: 786 x 800 km, 39.6° (Epoch: 10 February)

Event Time Altitude Azimuth Distance (km) Brightness Sun altitude
Rises 09:10:39 0° 197° (SSW) 3,270 7.2 -15.3°
Reaches altitude 10° 09:14:32 10° 171° (S) 2,342 6.1 -16.0°
Maximum altitude 09:16:57 13° 144° (SE) 2,138 5.6 -16.4°
Enters shadow 09:18:27 12° 127° (SE) 2,219 5.5 -16.7°
